Location: Bailleul
(50.3375°N, 2.8513°E)
Time: 05:10:41
(UTC+00:00)

Cosmos 2219 - Pass Details

Date: 19 April 2021
Orbit: 834 x 859 km, 71.1° (Epoch: 09 May)

Event Time Altitude Azimuth Distance (km) Brightness Sun altitude
Exits shadow 21:31:19 - 214° (SW) 3,186 6.0 -21.4°
Reaches altitude 10° 21:33:16 10° 216° (SW) 2,441 5.4 -21.6°
Maximum altitude 21:38:51 72° 301° (WNW) 880 3.4 -22.1°
Drops below altitude 10° 21:44:30 10° 26° (NNE) 2,461 6.0 -22.6°
Sets 21:46:58 0° 29° (NNE) 3,402 6.7 -22.8°
